George, South Africa

10:56 AM SAST on March 26, 2017 (GMT +0200)
George

Weather History for FAGG - October, 2011

Change the Weather History Date:

Wednesday, October 19, 2011

  Actual Average Record
Temperature  
Mean Temperature 58 °F -  
Max Temperature 66 °F 68 °F 95 °F (1997)
Min Temperature 51 °F 52 °F 32 °F (1999)
Degree Days  
Heating Degree Days 6    
Growing Degree Days 8 (Base 50)    
Moisture  
Dew Point 51 °F    
Average Humidity 74    
Maximum Humidity 94    
Minimum Humidity 49    
Precipitation  
Precipitation 0.03 in - - ()
Sea Level Pressure  
Sea Level Pressure 29.71 in    
Wind  
Wind Speed 12 mph ()    
Max Wind Speed 32 mph    
Max Gust Speed 45 mph    
Visibility 7.7 miles    
Events Rain    
Averages and records for this station are not official NWS values.
T = Trace of Precipitation, MM = Missing Value Source: Averaged Metar Reports

Daily Weather History Graph

Daily Weather History Graph

Search for Another Location

Airport or City:

Trip Planner

Search our weather history database for the weather conditions in past years. The results will help you decide how hot, cold, wet, or windy it might be!

Date:

Astronomy

Oct. 19, 2011 Rise Set
Actual Time 5:44 AM SAST 6:46 PM SAST
Civil Twilight 5:18 AM SAST 7:12 PM SAST
Nautical Twilight 4:48 AM SAST 7:43 PM SAST
Astronomical Twilight 4:16 AM SAST 8:14 PM SAST
Moon 12:28 AM SAST (10/19) 10:53 AM SAST (10/19)
Length of Visible Light 13h 53m
Length of Day
13h 02m
Waning Gibbous, 57% of the Moon is Illuminated
Oct 19
Waning Gibbous
Oct 20
Last Quarter
Oct 26
New
Nov 2
First Quarter
Nov 10
Full

Hourly Weather History & Observations

Time (SAST) Temp. Dew Point Humidity Pressure Visibility Wind Dir Wind Speed Gust Speed Precip Events Conditions
12:00 AM 55.4 °F 53.6 °F 94% 29.62 in - ESE 5.8 mph - N/A   Clear
1:00 AM 53.6 °F 51.8 °F 94% 29.62 in 5.6 mi NE 3.5 mph - N/A   Unknown
2:00 AM 52 °F 50 °F 92% 29.61 in 6 mi North 5.8 mph - -  
2:00 AM 51.8 °F 50.0 °F 94% 29.59 in 5.6 mi NNE 4.6 mph - N/A   Unknown
3:00 AM 57.2 °F 50.0 °F 77% 29.59 in 6.2 mi NW 6.9 mph - N/A   Partly Cloudy
4:00 AM 57.2 °F 44.6 °F 63% 29.56 in - NNW 5.8 mph - N/A   Clear
5:00 AM 60 °F 46 °F 49% 29.58 in 19 mi WNW 13.8 mph - -   Scattered Clouds
5:00 AM 59.0 °F 46.4 °F 63% 29.56 in 6.2 mi WNW 13.8 mph - N/A   Partly Cloudy
6:00 AM 55.4 °F 44.6 °F 67% 29.59 in 6.2 mi WNW 5.8 mph - N/A   Scattered Clouds
6:20 AM 59.0 °F 46.4 °F 63% 29.59 in 6.2 mi West 6.9 mph - N/A   Scattered Clouds
7:00 AM 59.0 °F 50.0 °F 72% 29.62 in 6.2 mi WNW 6.9 mph - N/A   Mostly Cloudy
8:00 AM 60 °F 53 °F 69% 29.64 in 19 mi West 11.5 mph - -   Mostly Cloudy
8:00 AM 59.0 °F 51.8 °F 77% 29.62 in 6.2 mi West 13.8 mph - N/A   Mostly Cloudy
9:00 AM 57.2 °F 51.8 °F 82% 29.65 in 6.2 mi West 23.0 mph - N/A   Mostly Cloudy
9:32 AM 62.6 °F 53.6 °F 72% 29.65 in 6.2 mi WNW 19.6 mph - N/A   Scattered Clouds
9:44 AM 66.2 °F 51.8 °F 60% 29.65 in 6.2 mi WNW 21.9 mph 34.5 mph N/A   Scattered Clouds
10:00 AM 64.4 °F 50.0 °F 59% 29.65 in 6.2 mi West 24.2 mph - N/A   Mostly Cloudy
11:00 AM 64 °F 53 °F 59% 29.67 in 19 mi WNW 19.6 mph - -   Partly Cloudy
11:00 AM 64.4 °F 53.6 °F 68% 29.68 in 6.2 mi WNW 19.6 mph - N/A   Mostly Cloudy
12:00 PM 62.6 °F 50.0 °F 63% 29.68 in 6.2 mi WNW 24.2 mph - N/A   Mostly Cloudy
1:00 PM 64.4 °F 50.0 °F 59% 29.71 in 6.2 mi West 32.2 mph 44.9 mph N/A   Mostly Cloudy
2:00 PM 61 °F 51 °F 61% 29.75 in 6 mi West 27.6 mph - - Rain Light Rain
2:00 PM 60.8 °F 51.8 °F 72% 29.74 in 6.2 mi WNW 26.5 mph - N/A Rain Light Rain
3:00 PM 59.0 °F 53.6 °F 82% 29.74 in 6.2 mi West 23.0 mph 34.5 mph N/A Rain Light Rain
4:00 PM 60.8 °F 51.8 °F 72% 29.77 in 6.2 mi West 20.7 mph - N/A   Mostly Cloudy
5:00 PM 58 °F 54 °F 81% 29.82 in 12 mi WSW 17.3 mph - -   Mostly Cloudy
5:00 PM 59.0 °F 53.6 °F 82% 29.80 in 6.2 mi WSW 17.3 mph - N/A   Mostly Cloudy
6:00 PM 59.0 °F 51.8 °F 77% 29.83 in 6.2 mi West 23.0 mph - N/A   Mostly Cloudy
7:00 PM 59.0 °F 51.8 °F 77% 29.86 in 6.2 mi West 16.1 mph - N/A   Scattered Clouds
8:00 PM 56 °F 51 °F 79% 29.90 in 12 mi WNW 12.7 mph - -   Mostly Cloudy
8:00 PM 57.2 °F 51.8 °F 82% 29.89 in 6.2 mi WNW 12.7 mph - N/A   Scattered Clouds
9:00 PM 57.2 °F 51.8 °F 82% 29.92 in 6.2 mi WNW 13.8 mph - N/A   Mostly Cloudy
10:00 PM 57.2 °F 50.0 °F 77% 29.95 in 6.2 mi West 15.0 mph - N/A   Overcast
11:00 PM 55.4 °F 51.8 °F 88% 29.95 in 6.2 mi WNW 16.1 mph - N/A   Mostly Cloudy